KN4JGH Weather Reports


Display with metric or nautical units.
time (UTC)temp
F
wind
direction
speed
MPH
gust
MPH
rain 1hr
in
rain 24hr
in
rain mn
in
humidity
%
barometer
mb
20260504081322 45 86 0.0 0.0 0.00 0.00 0.00 87 1014.8
20260504080318 46 86 0.0 0.0 0.00 0.00 0.00 87 1014.7
20260504070315 47 86 0.0 0.0 0.00 0.00 0.00 83 1015.0
20260504050330 49 202 0.0 0.0 0.00 0.00 0.00 79 1015.9
20260504045325 49 202 0.0 0.0 0.00 0.00 0.00 79 1016.0
20260504044340 49 202 0.0 0.0 0.00 0.00 0.00 78 1016.0
20260504043338 49 202 0.0 0.0 0.00 0.00 0.00 77 1016.1
20260504042332 50 202 0.0 0.0 0.00 0.00 0.00 77 1016.1
20260504041326 50 202 0.0 0.0 0.00 0.00 0.00 78 1016.1
20260504040326 50 29 0.0 0.0 0.00 0.00 0.00 75 1016.2
20260504035323 50 29 0.0 0.0 0.00 0.00 0.00 75 1016.2
20260504034317 51 29 0.0 0.0 0.00 0.00 0.00 75 1016.3
20260504033353 51 29 0.0 0.0 0.00 0.00 0.00 75 1016.2
20260504032332 51 29 0.0 0.0 0.00 0.00 0.00 74 1016.2
20260504031347 52 202 0.0 0.0 0.00 0.00 0.00 73 1016.2
20260504030322 52 29 0.0 0.0 0.00 0.00 0.00 73 1016.3
20260504025318 52 29 0.0 0.0 0.00 0.00 0.00 73 1016.4
20260504024316 52 29 0.0 0.0 0.00 0.00 0.00 72 1016.4
20260504023332 52 29 0.0 0.0 0.00 0.00 0.00 73 1016.3
20260504022347 53 29 0.0 0.0 0.00 0.00 0.00 71 1016.2
20260504021340 53 29 0.0 0.0 0.00 0.00 0.00 71 1016.1
20260504020319 53 29 0.0 0.0 0.00 0.00 0.00 71 1016.1
20260504015313 54 29 0.0 0.0 0.00 0.00 0.00 69 1015.9
20260504014328 54 29 0.0 0.0 0.00 0.00 0.00 68 1015.9
20260504013347 54 202 0.0 0.0 0.00 0.00 0.00 66 1015.7
20260504012321 55 29 0.0 0.0 0.00 0.00 0.00 65 1015.8
20260504011316 56 29 0.0 0.0 0.00 0.00 0.00 64 1015.9
20260504010331 57 29 0.0 0.0 0.00 0.00 0.00 61 1015.9
20260504005330 58 29 0.0 0.0 0.00 0.00 0.00 57 1015.8
20260504004325 60 29 0.0 0.0 0.00 0.00 0.00 55 1015.9
20260504003321 62 29 0.0 0.0 0.00 0.00 0.00 51 1015.8
20260504002322 63 29 0.0 3.0 0.00 0.00 0.00 47 1015.9
20260504001316 65 29 1.0 5.0 0.00 0.00 0.00 43 1015.9
20260504000332 65 29 2.0 6.0 0.00 0.00 0.00 40 1016.0
20260503235327 66 211 0.0 4.0 0.00 0.00 0.00 41 1016.2
20260503234326 66 277 0.0 5.0 0.00 0.00 0.00 40 1016.2
20260503233321 67 261 2.0 6.0 0.00 0.00 0.00 38 1016.2
20260503232317 68 306 1.0 9.0 0.00 0.00 0.00 38 1016.2
20260503231317 69 239 4.0 9.0 0.00 0.00 0.00 36 1015.9
20260503230313 69 275 2.0 9.0 0.00 0.00 0.00 37 1016.1
20260503225328 70 350 2.0 9.0 0.00 0.00 0.00 36 1016.3
20260503224326 71 269 4.0 8.0 0.00 0.00 0.00 35 1016.4
20260503223322 70 198 3.0 6.0 0.00 0.00 0.00 37 1016.5
20260503222320 71 269 2.0 11.0 0.00 0.00 0.00 36 1016.8
20260503221313 70 227 7.0 14.0 0.00 0.00 0.00 37 1016.9
20260503220313 71 251 4.0 11.0 0.00 0.00 0.00 35 1017.0
20260503215329 71 217 4.0 8.0 0.00 0.00 0.00 36 1017.0
20260503214323 72 245 3.0 10.0 0.00 0.00 0.00 35 1017.1
20260503213322 72 266 2.0 8.0 0.00 0.00 0.00 35 1017.3
20260503212315 70 281 2.0 12.0 0.00 0.00 0.00 35 1017.4
20260503211328 71 298 4.0 9.0 0.00 0.00 0.00 35 1017.6
20260503210324 71 311 2.0 10.0 0.00 0.00 0.00 35 1017.6
20260503205323 70 324 4.0 10.0 0.00 0.00 0.00 36 1017.8
20260503204317 71 296 4.0 10.0 0.00 0.00 0.00 37 1018.1
20260503203331 71 252 2.0 8.0 0.00 0.00 0.00 44 1018.2
20260503202332 71 202 1.0 7.0 0.00 0.00 0.00 45 1018.3
20260503201347 71 276 4.0 7.0 0.00 0.00 0.00 38 1018.5
20260503200321 69 245 2.0 9.0 0.00 0.00 0.00 36 1018.8
20260503195317 70 195 5.0 10.0 0.00 0.00 0.00 36 1019.0
20260503194316 69 202 3.0 9.0 0.00 0.00 0.00 36 1019.1
20260503193331 69 276 3.0 10.0 0.00 0.00 0.00 36 1019.4
20260503192348 69 259 4.0 8.0 0.00 0.00 0.00 38 1019.4
20260503191325 68 321 2.0 10.0 0.00 0.00 0.00 38 1019.6
20260503190321 67 242 4.0 7.0 0.00 0.00 0.00 41 1019.6
20260503185316 67 300 5.0 9.0 0.00 0.00 0.00 40 1019.9
20260503184331 66 238 2.0 8.0 0.00 0.00 0.00 40 1019.9
20260503183331 67 227 2.0 10.0 0.00 0.00 0.00 42 1020.1
20260503182327 65 267 3.0 8.0 0.00 0.00 0.00 42 1020.4
20260503181320 65 235 1.0 9.0 0.00 0.00 0.00 44 1020.3
20260503180321 65 221 4.0 10.0 0.00 0.00 0.00 39 1020.2
20260503175337 65 256 4.0 10.0 0.00 0.00 0.00 39 1020.4
20260503174331 65 296 3.0 10.0 0.00 0.00 0.00 41 1020.5
20260503173327 65 138 1.0 7.0 0.00 0.00 0.00 46 1020.6
20260503172327 63 251 1.0 7.0 0.00 0.00 0.00 44 1020.8
20260503171321 63 212 1.0 10.0 0.00 0.00 0.00 39 1021.1
20260503170316 64 177 1.0 6.0 0.00 0.00 0.00 41 1021.1
20260503150314 57 193 0.0 7.0 0.00 0.00 0.00 47 1022.1
20260503131353 50 167 0.0 1.0 0.00 0.00 0.00 81 1022.0
20260503130328 49 167 0.0 0.0 0.00 0.00 0.00 83 1022.0
20260503110320 39 47 0.0 0.0 0.00 0.00 0.00 91 1020.7
20260503090315 43 51 0.0 2.0 0.00 0.00 0.00 91 1020.2